Miscellaneous Local Product
Issued by NWS Hastings, NE

Home | Current Version | Previous Version | Text Only | Print | Product List | Glossary Off
Versions: 1 2 3 4 5 6 7 8 9 10 11 12 13 14 15 16 17 18 19 20 21 22 23 24 25 26 27 28 29 30 31 32 33 34 35 36 37 38 39 40 41 42 43 44 45 46 47 48 49 50

000
AXUS43 KGID 111902
MISGRI

GID CWA HOURLY WEATHER ROUNDUP
NATIONAL WEATHER SERVICE HASTINGS NE
200 PM CDT FRI JUL 11 2014

NOTE: "FAIR" INDICATES FEW OR NO CLOUDS BELOW 12,000 FEET WITH NO
SIGNIFICANT WEATHER AND/OR OBSTRUCTIONS TO VISIBILITY.

...SOUTH CENTRAL NEBRASKA...

CITY           SKY/WX    TMP DP  RH WIND       PRES   REMARKS
GRAND ISLAND   CLOUDY    80  71  74 SE8       29.98F
HASTINGS       PTSUNNY   84  67  56 S9        29.98F
KEARNEY        PTSUNNY   84  72  65 S8        29.98F
ORD            PTSUNNY   81  72  74 S7        29.97S
YORK           PTSUNNY   81  73  78 S10       29.98S
AURORA         PTSUNNY   82  73  75 S9        29.97F
LEXINGTON      CLOUDY    78  72  80 NE3       29.99F
HOLDREGE       MOSUNNY   86  66  50 S9        29.98S
HEBRON         SUNNY     90  68  49 S12       29.98S HX  93

...NEBRASKA PANHANDLE...

CITY           SKY/WX    TMP DP  RH WIND       PRES   REMARKS
CHADRON        PTSUNNY   88  61  40 CALM      30.01F
ALLIANCE       CLOUDY    79  65  62 CALM      30.07F
SCOTTSBLUFF    MOSUNNY   84  62  47 VRB6      30.07S
SIDNEY         MOSUNNY   90  61  37 E8        30.08F HX  90

...WESTERN AND NORTH CENTRAL NEBRASKA...

CITY           SKY/WX    TMP DP  RH WIND       PRES   REMARKS
VALENTINE      PTSUNNY   86  65  49 NE6       30.01R
AINSWORTH      CLOUDY    82  66  58 CALM      30.01S
ONEILL         CLOUDY    83  69  61 SW5       29.98R
BROKEN BOW     PTSUNNY   82  70  66 SW5       30.00R
IMPERIAL       MOSUNNY   88  66  48 NE12      30.01F HX  90
NORTH PLATTE   PTSUNNY   84  68  58 E8        30.00F
MCCOOK         SUNNY     92  63  38 E9        29.97F HX  93

...EASTERN NEBRASKA...

CITY           SKY/WX    TMP DP  RH WIND       PRES   REMARKS
NORFOLK        CLOUDY    77  70  79 S9        29.99R
SO SIOUX CITY  PTSUNNY   76  69  79 E12       29.94F
TEKAMAH        CLOUDY    77  70  79 S10       29.97F
ALBION         CLOUDY    75  69  79 S3        29.98F
OMAHA EPPLEY   CLOUDY    78  68  71 S12       29.97F
OFFUTT AFB     CLOUDY    79  74  84 SE9       29.97F
MILLARD        CLOUDY    79  71  76 NE6       29.97S
LINCOLN        CLOUDY    83  70  64 S13       29.97F
NEBRASKA CITY  PTSUNNY   82  70  66 S7        29.99R
BEATRICE       CLOUDY    83  70  65 S14       29.97F
FALLS CITY     PTSUNNY   84  71  65 S13       29.98S

...NORTHERN KANSAS...

CITY           SKY/WX    TMP DP  RH WIND       PRES   REMARKS
GOODLAND       SUNNY     93  58  30 S10       30.00F HX  92
HILL CITY      SUNNY     99  58  25 S17G23    29.95F HX  98
NORTON         CLEAR     97  54  23 S10G20    29.96S HX  94
PHILLIPSBURG   SUNNY     97  57  26 S15       29.95F HX  95
SMITH CENTER   SUNNY     90  64  43 SE13      29.97F HX  91
BELOIT         SUNNY     90  61  37 S9        29.96S
HAYS           SUNNY    N/A N/A N/A S23G29    29.98S
RUSSELL        MOSUNNY   93  69  45 S15       29.98S HX  98
CONCORDIA      SUNNY     90  68  48 S15       29.98F HX  94
SALINA         PTSUNNY   96  65  35 S16       29.99S HX  98
TOPEKA         MOSUNNY   88  72  58 S13       30.02F HX  94



USA.gov is the U.S. government's official web portal to all federal, state and local government web resources and services.